Location: Newark
(48.0000°N, 67.0000°E)
Time: 14:23:30
(UTC+00:00)

Vanguard 2 - Pass Details

Date: 25 February 2020
Orbit: 552 x 2938 km, 32.9° (Epoch: 08 April)

Event Time Altitude Azimuth Distance (km) Brightness Sun altitude
Exits shadow 01:29:11 - 257° (WSW) 4,637 10.9 -9.6°
Reaches altitude 10° 01:29:36 10° 256° (WSW) 4,560 10.9 -9.5°
Maximum altitude 01:41:19 36° 197° (SSW) 3,648 10.9 -7.6°
Drops below altitude 10° 01:56:13 10° 140° (SE) 5,763 12.8 -5.1°
Sets 02:01:18 0° 133° (SE) 6,756 13.4 -4.3°
